Covington, KY

1:22 PM EST on December 12, 2017 (GMT -0500)
Cincinnati-Northern KY International

Weather History for KCVG - January, 2014

Change the Weather History Date:

Sunday, January 5, 2014

  Actual Average Record
Temperature  
Mean Temperature 36 °F 31 °F  
Max Temperature 48 °F 38 °F 65 °F (2007)
Min Temperature 24 °F 23 °F -10 °F (1884)
Degree Days  
Heating Degree Days 29 34  
Month to date heating degree days 193 170  
Since 1 July heating degree days 2144 2089  
Cooling Degree Days 0 0  
Month to date cooling degree days 0 0  
Year to date cooling degree days 0 0  
Moisture  
Dew Point 33 °F    
Average Humidity 76    
Maximum Humidity 100    
Minimum Humidity 52    
Precipitation  
Precipitation 0.68 in 0.10 in 1.62 in (2005)
Month to date precipitation 0.99 0.51  
Year to date precipitation 0.99 0.51  
Snow  
Snow 0.50 in 0.20 in 6.90 in (1977)
Month to date snowfall 4.7 0.9  
Since 1 July snowfall 17.5 6.5  
Snow Depth T in    
Sea Level Pressure  
Sea Level Pressure 29.73 in    
Wind  
Wind Speed 10 mph (South)    
Max Wind Speed 35 mph    
Max Gust Speed 43 mph    
Visibility 6 miles    
Events Rain , Snow    
T = Trace of Precipitation, MM = Missing Value Source: NWS Daily Summary

Daily Weather History Graph

Daily Weather History Graph

Search for Another Location

Airport or City:

Trip Planner

Search our weather history database for the weather conditions in past years. The results will help you decide how hot, cold, wet, or windy it might be!

Date:

Astronomy

Jan. 05, 2014 Rise Set
Actual Time 7:57 AM EST 5:30 PM EST
Civil Twilight 7:28 AM EST 6:00 PM EST
Nautical Twilight 6:54 AM EST 6:33 PM EST
Astronomical Twilight 6:22 AM EST 7:05 PM EST
Moon 10:41 AM EST (1/5) 10:54 PM EST (1/5)
Length of Visible Light 10h 32m
Length of Day
9h 32m
Waxing Crescent, 24% of the Moon is Illuminated
Jan 5
Waxing Crescent
Jan 7
First Quarter
Jan 15
Full
Jan 24
Last Quarter
Jan 30
New

Hourly Weather History & Observations

Time (EST) Temp. Windchill Dew Point Humidity Pressure Visibility Wind Dir Wind Speed Gust Speed Precip Events Conditions
12:52 AM 36.0 °F - 19.9 °F 52% 30.06 in 10.0 mi Calm Calm - N/A   Overcast
1:52 AM 34.0 °F 28.8 °F 24.1 °F 67% 30.06 in 10.0 mi South 5.8 mph - N/A   Overcast
2:52 AM 36.0 °F 32.1 °F 23.0 °F 59% 30.06 in 10.0 mi SSW 4.6 mph - N/A   Overcast
3:52 AM 36.0 °F 32.1 °F 24.1 °F 62% 30.05 in 10.0 mi SSW 4.6 mph - N/A   Overcast
4:39 AM 35.6 °F 29.9 °F 26.6 °F 70% 30.01 in 10.0 mi South 6.9 mph - N/A   Overcast
4:52 AM 35.1 °F 28.6 °F 28.0 °F 76% 30.02 in 10.0 mi South 8.1 mph - N/A   Overcast
5:52 AM 35.1 °F 30.1 °F 30.0 °F 82% 30.01 in 10.0 mi South 5.8 mph - N/A   Overcast
6:52 AM 35.1 °F 29.3 °F 28.9 °F 78% 30.00 in 10.0 mi SSE 6.9 mph - N/A   Overcast
7:52 AM 35.1 °F 30.1 °F 28.0 °F 76% 29.98 in 10.0 mi SE 5.8 mph - N/A   Overcast
8:52 AM 35.1 °F 31.0 °F 28.9 °F 78% 29.97 in 10.0 mi SE 4.6 mph - N/A   Overcast
9:52 AM 36.0 °F 30.3 °F 30.9 °F 82% 29.92 in 9.0 mi SE 6.9 mph - 0.00 in   Overcast
10:11 AM 35.6 °F 28.0 °F 32.0 °F 87% 29.89 in 8.0 mi SE 10.4 mph - N/A   Overcast
10:52 AM 37.0 °F 29.8 °F 34.0 °F 89% 29.86 in 9.0 mi SSE 10.4 mph - N/A   Overcast
11:52 AM 37.9 °F 30.9 °F 35.1 °F 89% 29.80 in 9.0 mi SSE 10.4 mph - N/A   Overcast
12:52 PM 39.9 °F 32.5 °F 36.0 °F 86% 29.70 in 10.0 mi SSE 12.7 mph - 0.01 in   Overcast
1:52 PM 44.1 °F 37.1 °F 39.0 °F 82% 29.62 in 10.0 mi SSE 15.0 mph - N/A   Overcast
2:52 PM 46.9 °F - 39.9 °F 77% 29.62 in 10.0 mi South 8.1 mph - N/A   Overcast
3:26 PM 39.2 °F 31.6 °F 37.4 °F 93% 29.65 in 3.0 mi NW 12.7 mph 21.9 mph 0.03 in Rain Rain
3:45 PM 37.4 °F 32.1 °F 37.4 °F 100% 29.62 in 0.5 mi North 6.9 mph - 0.04 in Rain Light Rain
3:52 PM 37.9 °F 32.7 °F 37.0 °F 97% 29.63 in 1.0 mi North 6.9 mph - 0.06 in Rain Rain
4:18 PM 37.4 °F 32.8 °F 37.4 °F 100% 29.59 in 2.0 mi ENE 5.8 mph - 0.06 in Rain Rain
4:52 PM 39.0 °F 34.0 °F 37.9 °F 96% 29.57 in 1.8 mi East 6.9 mph - 0.11 in Rain Rain
5:43 PM 39.2 °F 35.9 °F 39.2 °F 100% 29.53 in 0.5 mi ESE 4.6 mph - 0.08 in Rain Rain
5:52 PM 39.0 °F - 39.0 °F 100% 29.54 in 0.5 mi Calm Calm - 0.09 in Rain Rain
6:14 PM 39.2 °F 37.0 °F 39.2 °F 100% 29.52 in 1.2 mi East 3.5 mph - 0.11 in Rain Rain
6:49 PM 39.2 °F 35.0 °F 39.2 °F 100% 29.49 in 2.0 mi SE 5.8 mph - 0.21 in Rain Light Rain
6:52 PM 39.9 °F 35.8 °F 39.9 °F 100% 29.50 in 3.0 mi SE 5.8 mph - 0.21 in Rain Light Rain
7:32 PM 44.6 °F 40.7 °F 44.6 °F 100% 29.46 in 3.0 mi Variable 6.9 mph - 0.04 in Rain Light Rain
7:38 PM 42.8 °F 33.3 °F 41.0 °F 93% 29.48 in 0.8 mi WNW 24.2 mph 32.2 mph 0.05 in Rain Rain
7:40 PM 39.2 °F 28.3 °F 39.2 °F 100% 29.48 in 3.0 mi WNW 25.3 mph 32.2 mph 0.07 in Rain Heavy Rain
7:52 PM 37.9 °F 28.5 °F 37.0 °F 97% 29.49 in 3.0 mi NW 17.3 mph - 0.11 in Rain Rain
7:56 PM 37.4 °F 27.5 °F 37.4 °F 100% 29.48 in 4.0 mi NW 18.4 mph 26.5 mph 0.01 in Rain Light Rain
8:52 PM 34.0 °F 23.4 °F 33.1 °F 96% 29.54 in 3.0 mi WNW 17.3 mph 27.6 mph 0.05 in Snow Light Snow
8:56 PM 33.8 °F 23.5 °F 33.8 °F 100% 29.53 in 1.0 mi WNW 16.1 mph 27.6 mph 0.00 in Snow Light Snow
9:52 PM 33.1 °F 22.6 °F 32.0 °F 96% 29.60 in 1.0 mi WNW 16.1 mph 28.8 mph 0.04 in Snow Light Snow
10:28 PM 28.4 °F 12.7 °F 26.6 °F 93% 29.64 in 4.0 mi WNW 29.9 mph 34.5 mph 0.00 in Snow Light Snow
10:52 PM 26.1 °F 11.3 °F 23.0 °F 88% 29.70 in 9.0 mi WNW 23.0 mph 36.8 mph 0.00 in   Overcast
11:52 PM 25.0 °F 8.1 °F 21.0 °F 85% 29.76 in 8.0 mi WNW 29.9 mph 39.1 mph 0.00 in   Overcast